Wind_Speed
38 38 39 39 39 39 38 36 35 33 32 33 32 31 30 28 29 30 30 30 32 33 35 37 39 40 39 38 36 35 37 39 42 43 44 45 46 47 51 56 61 67 73 80 87 92 96 100 101 103 104 104 105 105 107 108 107 104 100 99 98 96 94 91 88 85 85 84 82 82 81 80 80 81 80 81 80 79 79 76 71 68 66 65 65
42 41 41 40 38 38 38 37 35 34 33 33 34 33 30 29 29 29 29 30 31 31 32 34 36 38 38 37 35 33 34 37 39 41 42 42 43 44 46 48 52 57 63 70 77 83 88 92 96 98 100 102 103 103 105 106 107 104 100 98 100 101 99 95 92 89 88 87 85 84 84 83 82 82 82 82 82 82 82 80 76 71 69 68 68
44 43 42 41 40 38 38 37 36 34 33 33 34 34 31 29 29 28 28 30 31 31 30 31 34 36 36 34 32 31 31 32 34 37 39 40 40 41 42 44 45 49 54 61 68 75 80 85 89 92 95 97 99 100 101 103 105 105 101 96 94 97 100 98 95 93 91 90 88 87 86 85 85 85 84 84 84 85 85 83 80 76 73 71 71
43 43 42 41 42 40 39 37 36 34 33 33 34 34 31 30 30 29 28 30 31 30 30 30 32 34 34 33 31 30 29 30 32 35 37 37 38 38 39 40 41 42 46 52 59 67 73 77 81 85 89 92 94 96 97 99 102 103 102 98 92 91 94 97 97 95 94 92 91 89 88 86 85 84 85 87 88 88 87 85 83 79 76 74 74
41 42 41 40 41 42 40 38 36 34 34 34 34 33 31 32 32 30 29 28 29 30 30 30 32 34 34 32 31 30 30 30 32 33 33 33 34 35 36 37 38 38 39 42 49 57 64 70 74 78 83 87 89 91 92 94 96 98 100 99 95 89 88 92 95 95 95 94 92 91 90 88 85 82 82 85 89 91 89 88 86 83 80 78 77
42 42 42 41 41 42 41 39 37 36 35 34 33 31 31 33 32 30 28 27 28 29 29 30 31 33 33 32 31 30 30 30 30 30 29 30 30 31 32 34 35 35 34 36 40 45 52 60 67 72 76 80 83 85 87 88 89 92 94 95 95 91 86 87 92 94 94 93 92 91 91 90 87 84 80 81 88 93 91 90 90 87 84 82 81
42 42 43 41 39 40 40 38 37 37 36 34 31 30 31 33 31 29 28 27 27 28 29 29 30 31 32 31 31 30 29 29 29 28 28 29 29 29 30 32 32 32 32 32 34 38 43 49 57 63 68 72 75 78 81 83 84 85 88 90 92 91 86 83 86 91 93 93 92 90 90 90 89 88 84 82 86 92 93 91 92 90 87 84 82
39 39 39 40 38 37 37 35 35 37 37 34 31 28 30 31 29 28 27 26 27 28 29 29 30 30 31 30 30 30 29 29 28 28 28 29 29 29 29 30 31 31 31 31 32 35 38 43 49 54 59 64 67 70 73 76 79 80 82 85 88 91 88 82 81 85 89 90 90 89 89 90 89 88 88 86 85 87 90 91 91 90 87 85 84
36 37 38 39 38 37 34 31 33 36 35 33 30 27 27 27 26 26 26 26 27 28 28 28 29 29 30 29 29 29 29 29 29 29 29 29 29 29 29 29 30 30 30 30 31 34 37 41 45 50 55 59 62 65 67 70 73 75 78 80 84 87 88 84 80 80 83 85 86 86 87 87 88 87 86 86 84 83 87 91 92 90 87 85 85
36 36 37 36 34 33 30 28 30 32 32 31 29 26 26 25 25 25 26 26 26 26 26 27 27 28 28 28 29 29 29 30 30 30 30 30 30 30 29 29 29 29 30 31 31 33 35 38 43 48 53 57 61 63 65 66 69 71 74 77 80 83 86 85 82 79 79 79 80 82 83 83 84 84 82 82 83 83 86 91 94 92 89 87 85
34 34 32 30 27 25 24 24 26 28 29 28 27 25 24 23 23 24 24 24 25 25 25 26 26 26 26 26 27 27 28 29 30 31 31 31 31 30 30 29 29 29 30 30 31 31 33 36 39 44 50 56 60 63 65 67 68 70 73 75 78 81 83 84 83 80 79 77 75 75 77 79 80 81 80 80 82 83 86 91 95 95 92 89 86
31 29 25 21 18 15 15 18 21 22 23 22 22 22 22 21 22 22 23 23 24 24 24 25 25 25 25 25 26 26 27 29 31 32 32 31 31 31 31 31 31 31 30 30 30 30 31 33 36 40 45 51 56 61 64 67 69 70 72 73 75 78 81 83 83 82 81 80 78 75 73 73 76 78 79 80 81 83 86 90 93 95 94 92 89
27 23 18 14 11 8 8 11 13 15 16 17 19 20 20 20 20 21 22 22 22 23 23 23 24 24 24 25 26 26 27 29 31 32 33 32 32 32 32 33 33 33 32 31 30 31 31 33 34 37 41 45 51 55 60 64 67 69 70 71 72 74 77 80 81 83 83 84 84 81 77 74 73 74 76 78 80 83 86 88 89 90 91 91 89
23 19 14 10 7 4 1 3 6 9 11 13 15 16 16 17 18 19 19 20 21 21 22 22 23 24 24 25 25 26 27 28 30 31 32 32 33 34 35 35 35 35 34 33 32 32 33 34 34 35 37 40 44 48 53 58 62 66 68 70 70 71 73 75 77 80 82 84 86 86 84 82 79 76 76 76 77 79 81 83 84 85 86 87 88
21 19 15 13 10 7 5 3 3 5 7 9 10 12 13 14 15 16 16 17 18 19 20 21 22 23 23 23 23 24 25 27 28 29 30 31 33 35 36 37 37 37 35 34 34 34 35 36 36 36 36 37 39 42 46 50 55 59 63 67 69 71 72 73 75 76 78 80 83 85 86 85 84 82 81 79 77 77 78 79 80 82 83 85 87
20 18 17 15 13 10 8 5 3 3 4 5 7 8 9 10 11 12 14 15 16 17 19 19 19 19 19 20 20 21 22 23 24 25 27 29 31 33 35 36 36 36 34 33 34 35 36 37 38 38 38 38 39 41 42 45 48 52 56 59 63 67 69 71 73 75 76 77 79 82 84 85 85 84 83 82 80 79 78 78 79 80 81 83 84
19 17 16 15 13 11 9 7 5 3 2 3 4 5 6 7 9 10 11 11 12 13 13 13 13 14 14 15 15 17 18 19 20 21 22 24 27 29 31 32 33 34 34 34 36 37 39 40 40 40 41 41 42 44 45 45 46 47 49 52 55 59 62 65 69 72 75 77 79 80 83 86 86 85 84 83 82 81 79 78 78 78 79 80 82
18 17 16 15 13 12 10 8 6 4 2 1 1 2 3 4 5 5 6 6 7 8 9 9 10 10 11 12 13 14 15 16 17 19 20 22 24 25 28 29 31 32 33 35 36 38 39 40 41 42 42 43 44 45 47 48 48 48 48 49 51 53 55 58 62 65 69 73 76 79 81 84 86 86 86 85 83 82 81 80 79 79 79 79 80
17 16 16 14 13 11 10 8 6 5 4 3 2 1 1 2 2 3 4 4 4 5 6 6 6 7 7 8 8 9 10 11 13 14 16 18 19 21 23 25 26 28 30 32 34 36 37 39 41 42 42 43 44 46 47 49 50 50 51 52 52 51 52 54 56 59 62 65 69 72 75 78 81 83 85 85 85 84 83 83 83 83 83 83 83
16 16 16 14 13 11 10 9 8 6 5 4 3 3 2 2 2 2 2 3 3 2 2 1 1 1 1 1 2 3 3 4 6 7 8 10 11 13 14 16 17 19 22 24 27 30 32 35 39 41 43 44 45 46 48 50 51 51 52 54 53 53 54 55 55 56 58 60 62 65 68 71 74 77 79 82 83 83 83 83 83 83 84 84 85
17 16 16 14 13 11 10 9 8 7 6 6 6 7 8 8 9 9 9 9 7 6 5 4 3 2 1 1 0 1 2 3 3 4 5 6 7 8 10 12 14 15 17 19 21 23 26 29 33 38 41 43 45 46 47 49 50 52 53 53 53 53 54 55 55 57 58 59 60 61 63 65 68 69 72 74 76 78 79 79 78 79 79 80 81
16 15 14 13 12 11 10 10 10 10 11 11 12 13 13 13 12 11 10 8 6 5 4 3 2 2 1 1 2 2 3 3 3 3 4 5 6 8 10 13 15 16 17 18 19 19 21 24 27 31 36 39 42 44 45 47 49 51 52 51 51 52 53 54 55 57 59 61 61 61 62 62 63 63 64 65 66 68 69 71 71 71 71 71 72
15 14 13 12 12 13 13 13 14 15 16 16 16 15 14 12 11 9 8 6 5 4 4 4 4 4 3 3 3 3 3 4 4 4 4 6 9 11 13 15 17 18 18 19 19 18 18 20 21 24 27 30 33 37 39 41 43 45 45 44 45 47 49 51 53 55 58 59 61 62 62 63 63 63 63 63 63 63 63 64 64 64 64 63 63
13 13 13 14 15 15 15 16 17 17 17 16 15 13 12 11 10 8 7 6 5 6 7 8 8 7 6 5 4 4 4 4 4 5 6 8 10 11 13 15 18 19 19 19 19 18 17 16 16 17 17 18 20 23 26 27 29 30 31 33 36 40 43 46 49 52 54 56 59 60 61 62 63 63 64 64 65 65 64 63 62 62 61 61 60
14 15 15 15 15 15 16 17 17 17 16 14 13 12 11 10 8 7 7 8 9 10 10 11 11 10 9 8 7 6 4 4 4 5 7 8 8 8 8 9 11 13 16 18 19 19 18 15 14 15 15 15 16 17 19 21 23 25 27 31 34 37 39 42 46 48 50 52 54 56 57 58 59 61 62 64 65 66 66 65 64 63 62 62 61
16 16 16 15 15 16 17 17 16 15 14 13 12 11 10 9 8 9 10 11 10 9 10 11 11 10 9 7 6 5 3 2 3 5 7 7 7 7 7 6 4 3 5 9 12 13 14 14 15 17 17 17 18 18 19 20 21 22 25 28 32 35 38 41 43 45 46 48 49 50 51 53 55 58 60 62 63 63 64 64 64 63 63 62 61
17 16 16 16 16 16 16 15 14 14 14 13 13 11 10 10 11 13 13 12 10 10 11 12 12 11 9 6 4 2 2 1 2 4 7 7 7 7 6 5 3 1 2 4 5 7 10 12 13 13 13 13 15 16 17 16 17 17 18 19 22 27 32 37 40 41 41 42 42 43 45 47 50 53 55 57 58 60 61 61 60 59 57 54 51
15 16 16 16 15 15 14 14 14 15 14 13 12 11 11 11 13 13 12 10 10 12 14 14 13 12 9 6 4 3 2 2 1 3 5 6 7 7 5 4 2 2 3 4 5 6 8 9 9 9 9 11 13 15 15 15 16 17 18 18 18 21 24 27 30 32 34 35 37 39 40 41 43 44 46 48 50 51 52 51 48 45 42 38 36
14 14 15 15 15 13 13 14 15 15 14 13 12 11 11 12 12 12 11 9 11 14 15 14 13 12 10 9 8 5 3 2 2 3 5 5 5 4 4 2 2 2 2 2 3 4 6 7 8 8 9 9 11 13 14 14 15 17 18 18 18 19 20 20 22 23 25 28 31 33 34 35 35 36 37 38 38 37 36 35 34 32 31 30 30
14 14 14 15 14 14 14 15 15 15 15 14 14 13 13 13 13 13 12 11 12 15 16 15 14 12 11 11 11 9 8 6 4 4 5 5 5 4 4 3 2 2 2 1 1 4 6 7 7 7 7 7 7 8 8 9 11 13 14 14 14 15 15 16 18 19 21 24 27 29 31 31 32 31 31 30 30 29 29 29 28 28 29 30 31
16 16 16 16 15 15 16 16 16 15 15 14 13 12 12 13 14 14 12 12 12 14 15 15 15 13 11 10 10 11 11 10 9 9 8 7 7 7 6 5 4 3 3 3 2 2 4 5 5 6 6 6 6 5 5 6 7 9 10 11 12 13 15 16 17 19 20 22 23 25 26 27 27 27 27 27 26 26 26 26 27 28 30 31 33
17 17 17 17 16 16 16 16 15 15 14 14 14 13 13 14 15 15 15 14 14 14 14 14 14 13 11 10 9 10 11 11 11 10 9 9 9 9 9 8 7 7 6 6 5 4 3 3 4 5 6 5 5 6 8 8 8 8 9 12 15 18 20 21 21 21 21 22 22 22 22 22 22 23 23 23 24 24 24 25 26 27 28 30 31
16 16 16 16 16 16 16 15 15 16 15 15 15 15 16 17 18 18 18 18 17 17 16 14 13 12 11 10 10 9 9 10 10 10 10 11 11 11 11 11 11 11 11 10 9 8 7 7 6 6 6 6 7 8 10 11 11 11 12 15 18 20 21 21 20 19 19 19 19 19 20 20 20 20 21 21 21 22 23 23 24 25 26 28 30
13 14 14 15 15 15 14 15 15 16 16 16 16 16 16 17 17 18 19 19 19 18 17 16 15 13 10 9 9 8 7 7 8 9 10 11 11 12 13 13 13 13 13 14 13 11 10 10 10 10 10 11 11 11 11 12 13 13 14 17 19 19 19 18 18 17 17 17 17 17 18 18 18 18 18 19 19 20 21 22 23 24 26 27 29
11 11 12 12 13 13 13 13 14 15 16 16 16 17 17 16 16 16 16 17 17 17 17 16 16 14 10 7 6 6 6 6 6 7 9 9 10 11 12 12 12 12 13 14 14 14 13 13 13 13 13 13 12 12 11 12 13 14 15 18 19 19 18 17 17 16 16 15 15 15 15 14 14 14 15 15 16 18 19 20 22 24 26 28 30
8 8 8 9 11 11 11 12 12 13 13 14 15 16 17 17 18 17 16 15 15 15 15 15 16 14 10 6 4 5 6 6 6 6 7 8 9 9 9 10 11 11 11 12 13 13 14 14 14 15 15 14 13 12 12 12 12 13 14 16 17 19 19 18 18 17 16 15 14 14 13 13 14 14 14 15 16 18 20 22 25 27 29 32 34
4 4 5 6 7 9 9 10 10 10 11 11 13 14 15 16 17 18 18 17 16 15 14 14 15 14 9 4 2 2 3 5 6 6 7 8 8 8 9 9 9 9 10 10 10 11 12 12 12 13 14 15 15 15 14 14 14 13 13 13 14 15 16 16 17 17 16 16 16 15 16 16 16 17 18 18 20 21 23 25 27 29 31 33 35
2 2 2 3 4 5 6 7 8 8 9 10 11 13 14 15 16 17 18 19 18 17 15 15 16 15 9 3 0 1 1 3 5 7 8 9 9 10 10 10 10 10 10 9 9 9 10 11 11 11 11 11 12 12 13 13 13 13 13 13 12 12 12 12 12 12 12 12 12 13 14 14 15 16 17 18 20 21 23 25 27 29 31 33 35
3 3 3 3 3 4 4 5 6 7 8 9 11 12 14 15 16 18 19 19 20 19 17 16 16 14 9 3 1 3 4 3 4 6 8 9 10 11 11 11 11 10 10 10 9 8 8 9 9 8 8 8 8 8 9 9 10 10 10 10 10 10 10 10 9 10 10 10 11 12 13 14 15 16 17 19 21 22 24 26 27 29 31 32 34
5 4 5 6 6 6 6 6 7 8 9 10 11 12 14 16 17 18 19 20 20 20 19 18 17 14 8 3 1 3 6 6 4 5 7 8 9 10 10 10 10 10 10 9 9 8 7 7 7 7 7 6 6 6 6 6 6 6 7 7 7 7 8 8 8 9 9 10 11 12 13 14 15 17 18 19 20 22 23 24 26 27 29 30 31
7 6 6 7 8 8 9 10 10 10 11 11 12 13 15 17 18 18 19 19 19 19 19 19 17 13 8 3 1 4 6 7 7 5 5 6 6 7 7 7 7 7 8 8 7 7 6 6 6 6 6 6 5 5 5 5 5 5 5 5 5 5 5 6 6 7 8 9 10 11 12 13 14 15 16 17 19 20 21 23 24 25 26 27 29
9 8 7 8 9 10 10 12 13 12 12 13 13 14 15 17 17 17 17 18 18 18 18 18 16 12 8 3 1 3 6 8 8 8 6 5 4 4 4 4 4 4 4 4 4 4 5 5 5 6 7 7 6 6 6 6 6 6 5 5 5 6 6 6 7 7 8 9 9 10 11 12 13 14 15 16 17 18 19 20 21 22 24 25 27
9 9 8 8 8 9 10 12 13 14 13 13 14 15 15 15 15 15 15 16 16 16 16 16 14 11 8 5 3 3 4 6 8 9 9 8 6 5 4 2 1 1 1 1 0 1 3 4 5 6 6 7 7 7 7 7 6 6 6 6 6 6 6 6 6 6 7 7 8 9 10 10 11 12 13 13 14 15 16 18 19 21 23 25 27
10 10 9 9 8 9 10 11 13 13 13 14 14 14 14 14 13 13 13 13 14 14 14 14 13 11 9 7 6 5 4 5 8 10 10 10 9 7 6 5 3 3 2 2 2 2 2 3 4 4 5 5 6 6 6 6 6 6 6 5 5 4 4 5 5 5 6 6 6 7 7 8 9 9 10 12 13 15 16 18 19 21 23 25 27
11 10 10 9 9 9 9 10 11 12 12 12 12 12 12 11 10 10 11 12 12 12 13 13 12 10 9 9 8 8 7 6 6 7 8 9 9 8 7 6 5 4 3 2 2 2 3 4 5 5 5 6 6 5 5 5 4 4 3 3 3 3 3 4 4 4 4 4 4 5 6 7 8 10 11 12 13 15 16 18 20 22 24 26 28
11 10 10 10 10 11 11 11 11 11 11 11 10 10 9 7 7 8 10 11 11 11 11 12 11 10 9 9 9 9 9 9 8 7 6 6 6 6 5 4 3 2 1 2 3 4 5 6 6 6 5 4 3 3 3 3 3 3 3 3 3 2 2 2 2 2 3 4 5 6 7 8 10 10 11 12 14 16 17 19 21 23 25 27 29
12 12 11 11 11 12 12 12 12 11 10 9 8 7 5 4 5 7 9 10 10 10 10 10 10 10 9 8 9 9 9 9 9 8 7 6 5 4 4 4 3 4 4 5 5 5 5 5 4 3 2 2 2 2 3 3 3 2 2 2 1 1 1 2 2 3 4 5 6 7 8 9 10 11 12 14 15 17 19 21 23 25 27 28 30
14 13 12 12 12 11 11 10 9 8 8 7 5 3 2 2 4 7 9 9 9 9 8 8 8 8 8 8 8 8 8 8 8 8 8 8 7 7 6 5 5 5 5 4 4 3 3 3 3 2 2 2 3 2 2 2 1 1 1 1 1 1 2 3 4 5 6 7 7 8 9 9 10 12 13 15 17 18 20 23 25 27 29 31 32
15 14 13 13 12 11 10 8 7 6 5 4 2 0 1 2 5 7 9 10 10 9 7 6 5 6 7 8 8 8 8 7 7 8 8 7 7 6 6 5 5 5 4 3 3 3 3 3 3 2 2 2 1 0 0 0 1 1 1 2 2 3 3 4 5 6 7 8 8 9 10 10 12 13 15 16 18 20 22 25 27 29 31 33 34
15 15 14 13 12 11 9 7 5 5 4 2 1 1 1 2 5 8 10 11 10 9 7 5 4 4 5 6 6 7 7 7 7 7 7 6 6 5 5 5 5 4 3 3 3 2 2 2 1 1 0 1 1 1 2 2 2 2 2 3 3 4 5 5 6 7 8 9 10 10 11 12 13 15 16 18 20 22 24 27 29 31 33 35 36
16 15 14 13 12 10 8 6 5 4 2 2 2 2 1 3 6 9 11 11 10 8 6 5 4 4 5 5 6 6 6 7 7 6 6 6 5 5 4 4 3 3 2 1 1 1 0 1 1 1 2 2 2 3 3 3 3 3 4 4 5 6 6 7 8 9 10 10 11 12 13 14 16 17 19 21 22 24 26 28 31 33 35 37 39
Wind_Direction
286 284 281 278 276 275 274 272 270 268 267 269 270 268 266 264 264 263 261 258 256 254 252 251 251 252 254 255 255 252 248 244 241 241 241 243 244 243 241 240 239 238 238 238 237 235 235 235 236 236 237 236 235 235 235 236 237 239 240 240 238 236 235 236 235 234 235 235 235 233 231 232 233 234 236 239 240 240 241 244 245 245 245 244 243
289 287 285 283 280 277 275 273 270 268 266 266 267 267 266 264 264 263 261 260 257 254 253 252 252 252 252 254 254 252 249 246 243 243 243 244 245 245 244 243 241 239 238 237 237 236 235 234 234 235 236 236 235 235 235 235 236 237 239 240 240 238 237 237 236 234 234 235 236 236 234 233 234 235 236 238 240 240 240 242 244 244 244 243 243
290 289 287 286 284 281 277 274 270 267 265 264 265 266 266 265 265 264 262 261 260 257 255 254 254 254 253 254 254 253 251 248 245 244 244 244 245 246 247 246 244 242 239 237 235 235 234 234 233 233 234 235 235 235 234 235 235 237 237 238 239 240 239 238 237 235 235 235 236 237 237 235 235 235 236 237 239 239 239 239 242 243 244 244 244
290 288 287 286 284 282 279 275 273 269 266 263 262 263 264 264 265 265 264 262 261 261 259 257 255 254 253 252 252 252 250 247 244 243 243 244 246 247 248 249 247 245 242 238 235 233 232 232 231 231 232 233 233 234 234 234 235 236 237 237 238 239 240 239 238 237 236 236 236 236 237 237 236 236 237 237 237 238 238 238 240 242 243 244 244
290 288 287 285 282 281 278 275 273 270 266 262 259 260 260 260 261 263 263 262 260 259 258 256 254 252 251 250 249 249 249 247 247 246 245 245 246 248 249 250 250 248 245 242 237 233 230 229 229 229 230 231 232 232 233 234 234 235 236 237 238 238 239 240 240 239 237 236 236 237 237 237 237 236 238 238 237 237 236 237 239 241 243 244 244
292 290 289 286 281 278 276 273 270 268 265 262 260 257 256 257 259 261 263 263 261 258 255 254 253 251 250 249 248 248 249 250 251 251 247 245 246 247 248 249 249 249 247 245 242 237 231 228 227 227 227 228 230 231 231 232 233 234 235 236 237 237 239 240 240 240 239 238 238 238 238 238 237 236 237 238 236 235 235 235 237 239 241 242 243
295 293 290 287 283 277 274 271 267 264 263 262 262 258 255 256 258 262 264 264 261 258 255 253 252 250 248 247 247 248 250 251 252 251 249 247 246 246 246 246 247 247 246 245 243 240 234 229 227 226 227 227 228 230 230 230 231 232 233 234 235 235 236 238 239 240 240 240 239 239 239 239 239 237 237 238 237 234 233 234 236 238 240 241 241
298 295 291 288 284 277 273 269 263 259 259 260 261 259 257 258 260 262 263 262 260 257 254 252 251 249 247 245 245 245 246 248 249 250 249 248 247 247 246 246 245 245 244 243 241 240 236 231 227 226 227 227 228 229 230 230 230 230 231 232 233 233 234 236 237 238 239 240 240 240 240 240 240 239 238 238 239 237 234 234 236 239 240 240 239
303 299 295 291 285 278 272 266 258 255 255 257 259 259 259 260 260 259 257 256 255 253 252 252 252 250 247 244 243 243 243 244 246 247 248 248 248 247 247 246 246 245 244 241 239 238 236 233 229 227 226 227 228 228 229 230 230 229 230 230 231 231 232 233 234 235 237 239 240 241 241 241 241 241 241 241 242 241 237 234 235 237 238 238 237
307 303 299 294 288 279 270 261 254 251 250 252 255 257 258 257 254 253 252 252 254 254 252 252 252 250 248 246 244 242 242 243 244 246 247 248 249 248 247 247 246 245 244 242 239 237 236 234 230 227 226 226 226 227 227 228 228 228 228 229 229 230 230 231 232 232 233 235 238 239 241 241 241 242 243 242 242 241 237 233 233 235 236 236 235
313 310 304 299 293 281 267 255 249 246 245 247 250 252 254 254 252 252 253 254 255 254 252 251 250 248 247 247 246 244 242 242 243 245 246 248 249 249 249 247 246 244 244 243 242 239 236 235 232 229 227 226 225 225 225 226 226 226 226 227 228 228 229 230 231 231 231 231 233 235 236 238 240 240 241 240 239 238 234 231 232 233 235 235 234
323 319 313 309 304 287 262 249 245 244 243 244 247 250 254 255 254 253 253 253 252 250 249 249 249 247 246 245 245 244 242 240 241 242 244 245 246 248 248 247 246 244 243 243 243 241 238 235 233 231 229 227 226 225 224 225 225 225 225 225 225 227 228 229 230 231 232 231 231 232 232 233 234 235 236 236 236 233 230 228 229 231 232 233 233
336 332 328 326 322 298 261 245 241 239 239 241 245 249 252 254 253 251 250 250 250 248 248 248 249 249 247 245 243 243 242 241 241 241 242 242 242 242 244 245 245 244 243 242 241 241 240 238 235 232 230 228 227 226 225 225 225 225 225 225 225 226 227 228 230 231 232 233 233 233 234 234 233 232 231 231 231 230 229 228 229 230 230 231 231
351 353 357 3 5 360 299 228 224 226 232 237 242 246 248 249 249 248 247 247 247 248 249 251 253 252 250 248 245 244 244 244 244 243 242 241 239 239 240 242 243 243 243 241 240 239 239 239 237 235 233 230 229 228 227 227 226 226 226 227 227 227 227 228 229 230 232 233 234 235 236 237 237 235 233 232 230 230 230 230 231 231 232 231 231
4 12 21 32 43 53 66 101 182 211 223 230 235 239 242 244 244 245 245 246 248 250 253 255 256 255 253 250 248 246 245 245 244 243 242 241 239 238 239 240 242 242 242 242 240 239 239 240 240 239 237 235 233 231 229 229 229 228 228 228 228 229 229 230 230 231 231 232 233 235 236 238 238 238 237 236 235 233 233 232 232 232 233 233 233
14 21 29 38 47 56 65 79 109 160 197 215 226 232 238 242 244 246 249 251 253 255 257 258 257 256 254 252 249 247 246 247 247 247 246 244 242 241 241 243 244 244 244 242 241 240 239 240 240 240 239 238 237 236 234 233 232 231 230 230 229 229 230 231 232 233 233 232 232 233 235 237 238 238 239 239 238 237 236 236 235 235 235 236 236
19 25 32 40 48 56 64 75 88 111 152 195 217 230 240 246 250 253 254 256 257 257 257 258 258 258 257 255 252 250 250 250 250 250 249 247 245 244 243 243 244 244 243 241 239 239 239 239 239 238 238 238 237 238 238 237 235 234 233 232 232 231 230 231 232 233 234 234 234 234 235 236 237 238 239 240 240 240 239 239 239 238 238 238 239
24 29 35 41 46 52 59 67 76 86 102 135 202 236 249 254 258 261 261 260 258 257 258 259 258 258 257 256 256 255 255 255 254 253 252 250 248 247 245 245 245 245 245 244 243 241 241 241 240 239 237 237 236 237 238 239 238 238 237 236 235 232 231 231 232 232 232 233 234 234 235 236 237 238 240 241 241 242 242 243 242 242 242 242 242
26 33 39 44 49 54 59 65 72 76 77 73 64 37 315 291 291 289 283 277 271 266 263 258 253 251 249 250 253 253 252 252 252 251 250 249 249 249 249 249 249 249 249 248 248 246 245 244 243 242 240 239 238 237 238 238 238 238 238 238 237 235 234 234 233 233 232 232 232 233 234 235 236 237 239 241 243 244 244 245 245 245 246 246 246
31 37 43 48 53 58 59 61 63 63 63 62 56 56 55 48 50 60 68 76 82 87 91 105 125 148 181 210 227 233 232 232 236 240 243 246 246 246 248 248 249 250 251 250 250 249 248 246 245 244 243 241 240 240 239 239 239 238 238 239 238 237 237 237 236 235 235 234 233 232 233 234 235 236 237 239 241 242 244 245 245 245 246 246 246
38 41 44 46 49 52 54 56 59 61 65 70 75 80 85 88 89 89 87 86 85 82 80 74 68 73 78 95 206 241 245 244 244 246 253 259 260 258 257 255 254 254 254 255 254 253 251 249 246 244 243 241 240 240 241 241 241 240 240 240 240 240 240 239 239 238 238 237 235 234 233 234 234 235 236 237 238 240 241 242 243 243 244 244 244
38 39 40 42 45 51 59 65 71 77 81 85 86 87 89 88 87 85 81 76 69 59 49 32 14 1 343 311 285 278 275 271 266 258 256 265 273 274 271 267 262 256 251 252 255 257 255 253 249 245 243 241 239 238 239 240 241 241 242 242 242 242 242 241 241 240 239 239 238 236 236 235 235 235 235 235 235 236 237 238 239 239 240 241 242
35 38 45 53 60 65 69 75 83 88 91 91 89 88 86 85 82 78 72 66 55 36 12 352 335 320 310 296 277 274 274 268 264 264 272 284 291 292 288 281 273 263 252 246 248 252 256 255 251 247 244 241 238 237 237 238 240 242 243 242 242 242 242 243 242 242 241 240 239 238 237 237 237 237 236 236 235 234 235 235 236 236 237 238 239
41 54 65 70 71 73 78 84 90 93 92 90 88 87 85 82 78 72 64 49 30 11 354 340 329 317 309 300 287 279 272 264 264 275 289 296 299 298 295 288 280 272 259 247 242 247 251 252 249 247 245 241 236 235 236 237 239 240 239 238 237 238 240 241 242 242 242 242 241 240 239 238 238 237 236 236 236 236 236 236 236 236 237 238 239
64 71 73 71 72 79 86 91 92 90 87 86 85 84 81 76 68 59 46 30 18 6 351 338 330 326 321 312 305 302 291 274 271 282 290 294 295 295 298 296 286 272 257 244 240 244 248 247 245 244 244 242 239 237 237 238 238 238 237 236 236 237 238 240 241 243 243 244 243 242 241 240 239 238 236 235 235 235 235 236 236 236 237 238 239
79 75 69 68 76 86 91 91 87 84 83 84 82 78 73 66 56 47 39 32 22 10 357 348 343 343 342 327 311 301 286 270 279 288 292 294 295 299 310 316 313 285 249 236 235 241 242 239 239 241 241 242 242 238 236 235 235 235 237 239 239 238 238 239 241 242 242 242 242 242 241 240 239 237 236 234 234 233 234 234 235 236 237 238 240
78 70 65 70 81 89 90 86 82 80 78 76 71 63 55 48 42 40 39 36 29 23 20 15 9 7 4 350 327 312 309 325 319 301 302 307 308 314 324 325 308 243 171 180 195 208 212 217 227 235 236 233 227 221 221 224 228 232 238 244 244 240 238 238 238 238 238 238 237 236 235 235 235 234 234 232 231 231 232 233 234 235 236 237 237
72 63 61 70 83 90 87 80 76 74 71 68 61 52 45 40 38 41 47 46 40 39 37 30 23 19 19 20 21 21 15 15 350 315 320 329 325 318 326 333 303 254 214 198 200 209 212 213 216 218 212 207 207 214 225 235 238 239 241 243 242 238 235 233 233 234 233 232 230 229 228 227 227 226 225 225 226 227 228 228 229 228 227 226 226
64 58 61 74 86 87 79 73 69 67 65 64 59 52 46 41 40 47 57 59 54 52 49 43 35 33 36 42 44 42 40 41 17 345 351 3 357 332 329 347 343 312 283 238 214 203 200 200 200 202 205 210 220 231 238 241 237 232 229 230 232 232 231 227 224 222 221 219 218 216 215 213 211 211 211 211 212 212 212 211 210 209 210 213 218
59 61 72 83 87 81 71 65 62 60 58 57 54 48 43 40 41 44 48 50 51 52 51 48 42 38 39 44 46 46 47 50 52 45 42 47 45 32 23 23 16 359 358 356 183 179 181 184 190 201 208 209 213 218 219 217 216 212 210 213 217 217 213 208 204 203 202 201 201 201 199 196 193 193 192 191 191 190 191 194 198 204 210 217 222
66 71 78 81 78 71 64 60 57 55 54 55 55 51 45 44 45 45 43 42 44 47 48 48 45 41 38 40 44 47 49 54 61 63 62 61 57 50 44 38 37 43 48 52 78 145 182 188 186 185 176 162 155 153 149 161 180 183 183 185 184 176 171 170 170 172 175 177 179 182 181 179 179 179 180 181 184 188 193 200 206 212 217 222 225
72 74 74 72 67 62 59 57 56 54 54 57 61 61 57 54 51 50 47 44 40 39 41 43 45 44 43 43 41 40 44 53 63 68 67 64 59 55 53 53 58 65 70 72 79 96 129 164 179 182 169 143 123 116 115 124 140 151 155 158 156 150 149 151 152 154 157 159 162 165 167 169 172 176 180 184 188 193 198 204 210 214 218 222 224
70 70 66 64 62 59 56 55 52 51 52 55 57 57 54 50 46 45 45 44 40 36 33 33 35 38 46 55 56 51 50 56 63 66 66 66 64 61 60 63 69 74 75 76 80 89 102 115 131 149 154 145 134 127 120 120 127 134 142 147 146 146 149 152 154 156 158 160 162 165 166 170 173 177 181 185 188 193 198 203 208 212 216 219 222
65 62 59 57 56 54 51 49 46 45 47 48 49 49 46 40 35 33 33 34 34 32 29 26 23 25 35 52 65 70 69 66 63 62 63 64 63 63 64 68 72 74 75 74 75 79 90 100 108 117 126 132 135 132 125 122 124 130 139 145 146 147 151 152 152 152 153 154 156 158 160 163 166 171 177 182 187 193 198 203 209 214 218 222 226
61 57 53 50 48 46 45 45 44 42 41 41 41 41 40 36 31 26 24 24 25 25 23 19 16 15 18 30 48 61 68 69 66 65 67 67 64 64 67 71 74 74 73 73 72 75 81 89 96 103 111 121 128 129 126 124 124 127 136 144 147 147 148 147 145 145 145 146 148 151 153 156 161 167 174 182 189 196 203 210 216 222 227 232 236
58 55 50 47 45 41 39 40 39 36 34 35 35 34 32 30 28 25 21 17 15 14 14 12 10 9 7 10 25 39 48 56 62 66 69 70 69 69 71 74 75 76 76 75 75 78 83 87 92 97 103 109 114 117 118 121 124 128 133 140 146 149 150 151 150 150 151 152 156 160 165 170 176 183 190 197 204 210 216 221 226 230 234 238 241
42 41 41 43 42 37 33 30 27 23 24 27 27 25 23 22 20 18 15 11 6 3 3 4 5 6 4 360 7 29 39 49 57 65 71 74 76 76 76 75 75 78 80 81 80 82 86 88 89 92 97 102 106 110 112 114 118 123 127 133 141 149 154 157 160 162 166 170 174 180 186 191 196 202 207 213 219 223 227 231 234 237 239 241 243
349 351 353 7 19 20 19 18 14 10 10 11 11 11 11 11 9 6 5 3 0 358 358 359 2 5 6 360 273 178 144 69 65 73 81 83 84 84 83 81 79 79 81 83 84 86 89 91 92 93 95 98 102 107 112 116 119 123 127 131 137 145 151 157 162 168 174 181 187 194 201 207 212 217 222 227 231 234 237 239 241 243 245 246 247
309 290 293 296 304 318 336 349 351 349 350 352 354 356 357 356 356 355 355 356 356 355 356 359 1 4 8 10 214 190 181 155 97 89 94 94 91 88 86 85 84 83 82 82 84 89 95 98 101 104 106 107 109 111 115 118 122 126 130 134 140 146 153 160 168 175 183 191 199 205 211 216 220 224 228 231 234 236 239 241 244 246 248 250 252
328 291 280 281 282 286 297 309 317 323 328 333 339 343 343 343 344 346 348 351 353 353 355 358 359 0 5 14 181 190 184 175 152 119 108 104 97 92 90 89 87 86 85 83 83 87 95 103 108 111 112 113 114 116 119 124 128 133 137 142 148 154 162 169 176 183 191 198 204 209 214 218 222 227 231 235 239 242 246 249 251 254 256 258 260
346 322 294 285 283 285 290 297 301 308 315 321 327 332 333 334 337 341 344 348 352 354 355 357 356 355 356 360 187 188 184 180 174 160 139 123 113 106 101 98 92 87 84 82 81 85 93 104 115 122 125 126 127 130 135 141 146 148 151 155 161 170 178 185 193 201 209 214 218 223 229 233 237 242 245 248 251 253 254 256 258 259 261 262 264
349 338 319 301 292 290 291 293 295 300 307 313 319 323 326 330 335 340 344 349 354 357 358 357 355 357 4 17 152 181 185 183 179 178 178 172 163 149 132 118 104 89 79 76 78 87 100 115 128 137 142 147 151 156 159 161 164 167 172 177 184 191 196 202 207 213 219 224 228 233 238 241 245 247 249 250 252 254 257 260 263 266 268 271 273
342 335 329 320 310 302 297 293 294 299 304 310 314 319 325 331 336 341 348 356 1 3 2 1 3 12 27 45 77 132 168 181 183 186 191 195 198 200 198 190 174 107 74 75 88 110 122 133 142 149 153 156 159 159 157 157 160 163 165 167 170 173 179 187 195 205 213 219 224 228 233 237 241 245 249 255 260 265 270 273 276 278 279 281 282
342 331 327 326 322 316 308 303 302 305 310 314 317 321 326 332 338 346 357 6 9 9 9 11 17 30 47 61 75 96 129 166 184 192 197 202 207 215 223 230 239 248 245 236 226 195 156 138 132 132 134 135 136 135 133 135 140 145 148 151 155 163 175 187 196 205 212 218 224 231 239 248 256 264 271 277 281 283 286 287 289 290 291 292 292
348 336 327 323 320 316 313 312 314 318 323 325 326 327 330 334 343 357 8 14 14 14 17 24 32 43 59 73 80 87 96 116 149 177 192 199 206 215 222 228 236 242 236 224 197 142 119 106 97 95 97 101 108 116 123 131 140 145 148 154 162 172 181 190 197 208 221 234 250 265 275 283 287 290 292 294 296 299 300 301 302 302 301 300 299
355 348 339 331 326 322 320 320 323 327 330 331 331 332 335 342 357 9 14 16 17 17 22 33 44 54 66 80 88 91 94 99 110 128 149 166 184 195 201 207 220 221 175 127 107 103 101 97 93 93 96 102 110 121 128 136 142 142 144 152 162 171 186 203 229 259 280 294 301 302 303 302 301 302 305 307 310 311 311 310 309 308 306 306 305
352 349 345 341 335 331 328 328 328 328 328 328 330 334 341 357 13 15 14 15 17 16 21 35 50 60 69 79 85 88 91 95 99 105 111 118 127 132 131 128 125 121 111 103 97 94 92 91 92 95 100 112 121 125 128 129 132 136 145 160 181 204 263 292 307 313 315 315 313 310 307 306 306 311 315 317 316 316 315 314 315 314 314 313 313
346 343 341 340 339 337 336 335 333 329 325 324 329 338 356 21 21 17 13 13 14 14 17 28 45 59 68 75 78 79 82 86 90 93 95 96 99 104 108 111 111 107 99 94 92 90 88 93 103 112 117 122 126 128 127 127 132 154 188 248 287 302 312 317 319 318 315 313 309 306 306 309 313 317 318 317 317 318 319 319 320 320 320 319 319
343 340 337 336 336 339 341 340 336 328 322 318 317 325 82 33 21 17 13 12 11 12 15 23 35 51 63 69 73 75 78 81 82 84 85 86 89 94 97 96 93 89 84 88 97 104 107 112 115 115 114 116 118 128 252 255 249 251 265 285 298 307 312 312 312 311 308 306 306 306 307 312 315 315 314 315 317 320 321 323 323 324 324 323 322
344 340 337 334 334 336 339 340 334 326 315 292 222 170 108 27 17 15 14 12 10 10 16 25 35 49 61 69 73 76 77 79 81 82 83 85 85 85 84 84 85 86 89 94 99 98 98 98 95 89 353 293 287 276 262 254 253 264 278 290 296 302 304 303 303 303 303 303 304 306 308 310 311 311 313 316 319 321 323 325 326 326 326 326 325
348 345 341 336 334 334 334 333 329 323 301 226 193 176 68 21 16 14 12 11 9 12 18 26 40 64 78 84 86 84 82 81 81 81 81 80 78 75 72 71 73 74 72 67 52 30 358 311 300 296 286 280 275 268 262 262 266 272 280 286 290 293 295 296 297 299 301 303 306 308 310 311 311 312 314 317 319 321 323 325 326 327 328 328 328
Height
5286 5285 5283 5282 5281 5281 5280 5280 5280 5280 5280 5279 5280 5280 5280 5281 5281 5281 5281 5282 5282 5283 5284 5285 5286 5288 5289 5291 5292 5293 5295 5296 5297 5298 5300 5303 5305 5307 5310 5311 5314 5319 5322 5325 5330 5335 5341 5347 5353 5359 5365 5371 5379 5385 5391 5397 5401 5406 5411 5417 5424 5432 5437 5442 5453 5464 5468 5471 5476 5481 5485 5489 5492 5496 5500 5502 5506 5508 5509 5514 5520 5522 5525 5529 5533
5279 5278 5276 5275 5274 5273 5273 5273 5273 5273 5273 5273 5273 5274 5274 5275 5275 5276 5276 5277 5277 5278 5279 5280 5281 5282 5283 5285 5286 5288 5289 5290 5292 5293 5295 5297 5299 5300 5302 5304 5307 5310 5313 5316 5320 5324 5329 5335 5342 5347 5352 5358 5366 5373 5379 5385 5390 5395 5400 5405 5413 5421 5427 5433 5442 5451 5456 5461 5466 5470 5474 5479 5483 5488 5492 5495 5499 5500 5501 5505 5510 5514 5517 5520 5524
5272 5270 5269 5268 5267 5266 5266 5265 5266 5266 5267 5267 5267 5268 5268 5269 5270 5271 5271 5272 5272 5273 5274 5275 5276 5277 5278 5280 5282 5283 5284 5286 5287 5288 5289 5291 5292 5294 5295 5297 5299 5302 5304 5306 5309 5313 5318 5324 5331 5337 5341 5346 5353 5360 5367 5373 5378 5384 5389 5395 5402 5409 5416 5422 5430 5439 5445 5451 5455 5459 5463 5468 5473 5478 5483 5487 5489 5490 5491 5495 5500 5504 5508 5512 5516
5266 5263 5262 5261 5260 5259 5258 5258 5258 5259 5260 5261 5261 5261 5263 5264 5265 5265 5266 5267 5267 5268 5269 5270 5271 5272 5273 5275 5276 5278 5279 5281 5281 5282 5283 5285 5287 5288 5290 5291 5293 5294 5296 5298 5300 5303 5307 5314 5321 5326 5330 5335 5342 5349 5356 5362 5367 5373 5379 5386 5392 5399 5405 5411 5419 5427 5433 5439 5444 5449 5453 5458 5463 5467 5471 5476 5478 5480 5481 5484 5489 5495 5500 5504 5507
5259 5257 5255 5254 5252 5251 5251 5251 5251 5252 5253 5254 5255 5256 5257 5258 5259 5259 5261 5262 5262 5263 5264 5265 5266 5267 5268 5270 5271 5273 5274 5275 5276 5277 5279 5280 5282 5283 5284 5285 5286 5287 5289 5290 5291 5294 5298 5304 5310 5315 5319 5325 5332 5339 5345 5351 5357 5364 5370 5377 5384 5390 5395 5400 5407 5414 5421 5427 5434 5439 5442 5447 5452 5456 5460 5464 5469 5471 5472 5475 5480 5486 5491 5495 5498
5251 5249 5247 5246 5245 5244 5243 5243 5244 5245 5246 5247 5248 5250 5252 5252 5253 5254 5255 5257 5258 5258 5259 5260 5261 5262 5263 5265 5266 5268 5269 5270 5272 5273 5274 5276 5277 5278 5279 5280 5281 5282 5283 5284 5286 5288 5292 5296 5301 5304 5309 5316 5323 5329 5335 5341 5347 5354 5361 5368 5375 5381 5385 5390 5396 5402 5409 5416 5423 5427 5431 5437 5442 5446 5450 5455 5459 5462 5463 5466 5469 5475 5481 5486 5490
5243 5241 5239 5237 5236 5236 5235 5235 5237 5238 5239 5240 5243 5244 5246 5246 5248 5249 5251 5253 5253 5254 5254 5255 5256 5257 5258 5260 5262 5263 5265 5266 5267 5269 5270 5271 5272 5273 5274 5275 5276 5277 5278 5279 5281 5283 5287 5290 5294 5297 5302 5309 5315 5319 5325 5331 5338 5344 5351 5358 5365 5370 5375 5380 5385 5391 5397 5404 5411 5417 5422 5427 5431 5436 5441 5443 5447 5451 5454 5457 5460 5466 5473 5479 5482
5236 5233 5230 5228 5227 5227 5227 5228 5229 5230 5232 5234 5237 5239 5240 5241 5244 5245 5247 5248 5248 5249 5249 5250 5251 5252 5254 5255 5257 5259 5260 5261 5263 5264 5265 5266 5267 5268 5270 5271 5272 5273 5274 5275 5277 5279 5282 5285 5288 5292 5297 5302 5307 5312 5317 5323 5329 5336 5342 5348 5354 5359 5365 5371 5376 5381 5386 5392 5400 5407 5411 5415 5420 5426 5430 5433 5438 5444 5449 5451 5454 5460 5465 5469 5471
5228 5226 5223 5220 5219 5219 5219 5220 5221 5223 5226 5229 5232 5234 5236 5237 5239 5241 5242 5242 5243 5243 5245 5246 5247 5248 5249 5251 5252 5254 5255 5257 5258 5260 5261 5262 5263 5264 5265 5267 5268 5269 5270 5272 5273 5275 5277 5280 5284 5288 5292 5296 5301 5305 5311 5316 5321 5328 5334 5339 5344 5349 5356 5361 5366 5371 5377 5383 5390 5396 5401 5406 5411 5416 5422 5427 5433 5438 5440 5442 5446 5451 5455 5458 5460
5222 5219 5215 5212 5211 5210 5212 5213 5215 5217 5220 5224 5227 5229 5231 5233 5234 5235 5236 5237 5238 5240 5241 5242 5243 5244 5245 5247 5248 5250 5251 5253 5254 5255 5256 5258 5259 5260 5262 5263 5264 5266 5267 5268 5270 5272 5274 5276 5279 5283 5286 5290 5295 5300 5305 5310 5315 5321 5326 5330 5335 5340 5346 5351 5357 5363 5368 5374 5381 5387 5392 5398 5403 5408 5414 5420 5423 5425 5427 5431 5436 5440 5444 5447 5450
5217 5212 5209 5206 5204 5204 5205 5207 5209 5212 5215 5219 5222 5225 5227 5228 5230 5231 5232 5234 5235 5236 5237 5238 5239 5241 5241 5243 5244 5245 5247 5249 5250 5251 5252 5254 5255 5256 5258 5260 5261 5262 5263 5265 5266 5269 5271 5273 5275 5278 5281 5285 5289 5294 5298 5303 5308 5313 5317 5321 5326 5331 5336 5342 5349 5355 5360 5366 5373 5379 5385 5391 5396 5400 5404 5408 5410 5413 5417 5421 5425 5429 5434 5438 5441
5212 5208 5204 5201 5200 5199 5201 5203 5206 5209 5212 5215 5219 5221 5223 5225 5227 5228 5229 5230 5231 5232 5233 5235 5236 5237 5237 5238 5239 5241 5243 5244 5245 5247 5248 5250 5251 5253 5254 5256 5257 5259 5260 5262 5263 5265 5267 5270 5271 5274 5277 5280 5283 5287 5292 5296 5301 5305 5309 5313 5317 5322 5327 5333 5340 5346 5351 5358 5364 5371 5378 5384 5387 5391 5395 5398 5401 5403 5407 5409 5413 5419 5424 5428 5432
5209 5205 5201 5199 5198 5198 5199 5201 5204 5207 5210 5213 5216 5218 5220 5222 5223 5224 5226 5227 5228 5229 5230 5231 5232 5233 5234 5234 5235 5236 5238 5239 5241 5242 5244 5246 5247 5249 5250 5252 5253 5255 5257 5259 5260 5262 5264 5266 5268 5270 5272 5275 5278 5282 5286 5289 5293 5297 5301 5306 5310 5315 5320 5325 5331 5336 5342 5348 5354 5363 5371 5376 5379 5383 5386 5387 5389 5393 5397 5401 5405 5409 5414 5418 5422
5209 5205 5201 5199 5198 5198 5199 5201 5204 5206 5209 5212 5214 5216 5218 5219 5220 5221 5223 5224 5225 5226 5227 5228 5228 5229 5230 5230 5231 5232 5234 5235 5236 5238 5240 5242 5243 5245 5246 5248 5249 5251 5253 5255 5256 5258 5260 5262 5264 5266 5268 5271 5274 5277 5280 5283 5286 5290 5294 5298 5303 5307 5311 5316 5322 5327 5333 5339 5346 5355 5362 5365 5369 5374 5375 5377 5381 5385 5389 5393 5396 5399 5403 5407 5410
5210 5207 5204 5201 5200 5201 5201 5203 5205 5207 5209 5211 5213 5214 5216 5217 5218 5219 5220 5221 5222 5223 5224 5224 5225 5225 5226 5227 5228 5229 5230 5231 5232 5234 5235 5237 5238 5240 5241 5243 5245 5247 5249 5251 5253 5255 5257 5258 5260 5262 5264 5267 5269 5272 5274 5277 5280 5283 5287 5291 5296 5299 5303 5309 5314 5319 5324 5330 5338 5345 5349 5352 5357 5361 5364 5368 5373 5377 5380 5383 5385 5388 5392 5396 5399
5212 5209 5207 5205 5204 5204 5204 5205 5206 5208 5209 5210 5212 5213 5214 5216 5217 5218 5219 5220 5220 5221 5221 5222 5222 5223 5223 5224 5224 5225 5226 5227 5228 5229 5231 5232 5234 5235 5237 5239 5241 5243 5246 5248 5249 5251 5252 5254 5256 5258 5260 5262 5264 5266 5269 5271 5274 5277 5281 5285 5288 5292 5297 5302 5306 5310 5315 5321 5328 5333 5336 5339 5345 5350 5354 5358 5363 5366 5369 5373 5376 5381 5385 5388 5392
5214 5212 5210 5208 5207 5207 5207 5208 5208 5209 5210 5211 5212 5213 5214 5215 5216 5216 5217 5218 5218 5219 5219 5220 5220 5221 5221 5222 5222 5223 5223 5224 5225 5226 5227 5228 5229 5231 5233 5235 5236 5239 5241 5243 5244 5245 5247 5249 5251 5253 5255 5256 5258 5260 5262 5265 5268 5271 5275 5279 5281 5285 5290 5294 5297 5301 5307 5311 5317 5321 5324 5327 5333 5340 5344 5347 5351 5356 5360 5365 5370 5374 5377 5380 5384
5216 5214 5212 5211 5210 5210 5209 5210 5210 5210 5211 5211 5212 5213 5213 5214 5215 5215 5216 5217 5217 5218 5218 5219 5219 5219 5220 5220 5220 5221 5222 5222 5223 5224 5224 5225 5226 5228 5229 5230 5232 5234 5235 5236 5238 5239 5241 5242 5244 5246 5248 5250 5252 5254 5256 5259 5262 5265 5269 5271 5274 5278 5283 5285 5288 5292 5296 5300 5304 5308 5312 5317 5323 5329 5333 5336 5341 5346 5351 5356 5361 5364 5366 5371 5375
5218 5216 5215 5214 5213 5212 5212 5211 5211 5212 5212 5212 5213 5213 5214 5214 5214 5215 5215 5216 5217 5217 5217 5218 5218 5218 5218 5218 5219 5219 5220 5221 5221 5222 5222 5223 5224 5225 5226 5227 5228 5229 5230 5231 5232 5233 5234 5236 5237 5239 5241 5243 5245 5247 5249 5252 5255 5259 5261 5263 5267 5272 5275 5277 5279 5282 5285 5288 5293 5298 5302 5306 5312 5318 5322 5326 5332 5337 5341 5345 5349 5353 5357 5361 5364
5220 5218 5217 5216 5215 5214 5214 5213 5213 5213 5213 5213 5214 5214 5214 5214 5215 5215 5215 5216 5217 5217 5217 5217 5217 5217 5217 5217 5218 5218 5219 5219 5220 5220 5220 5221 5222 5222 5223 5223 5224 5224 5225 5225 5226 5227 5228 5229 5230 5232 5234 5236 5238 5240 5242 5245 5248 5252 5254 5256 5261 5265 5267 5268 5271 5274 5277 5280 5284 5289 5293 5296 5302 5308 5312 5318 5323 5327 5331 5334 5339 5343 5347 5350 5353
5221 5220 5219 5218 5217 5216 5215 5215 5215 5215 5215 5215 5215 5215 5215 5215 5216 5216 5216 5217 5217 5218 5218 5218 5217 5217 5217 5217 5217 5218 5218 5218 5219 5219 5219 5220 5220 5220 5221 5221 5221 5221 5221 5222 5222 5223 5223 5224 5225 5225 5226 5228 5230 5232 5235 5237 5240 5243 5246 5250 5254 5256 5258 5261 5265 5267 5270 5273 5277 5281 5285 5288 5294 5299 5304 5309 5315 5318 5322 5325 5329 5332 5335 5338 5342
5223 5222 5221 5220 5219 5218 5218 5217 5217 5217 5217 5216 5216 5216 5217 5217 5218 5218 5218 5219 5219 5219 5219 5218 5218 5218 5217 5217 5217 5217 5217 5218 5218 5218 5218 5218 5218 5218 5218 5218 5218 5218 5218 5219 5219 5219 5219 5219 5219 5220 5220 5222 5224 5226 5228 5230 5232 5235 5239 5243 5246 5248 5250 5254 5257 5259 5262 5266 5270 5274 5278 5281 5286 5291 5295 5300 5305 5308 5312 5316 5319 5322 5325 5328 5332
5225 5224 5223 5222 5221 5220 5220 5219 5219 5219 5219 5219 5219 5219 5220 5220 5220 5220 5220 5221 5220 5220 5220 5219 5218 5218 5217 5217 5217 5217 5217 5217 5217 5217 5217 5217 5216 5216 5215 5215 5214 5214 5215 5215 5215 5215 5215 5215 5215 5215 5215 5217 5219 5221 5223 5224 5226 5229 5233 5237 5239 5240 5243 5246 5248 5251 5254 5257 5261 5266 5270 5274 5278 5283 5287 5292 5296 5299 5302 5306 5309 5313 5316 5320 5323
5227 5226 5225 5224 5224 5223 5222 5222 5222 5222 5222 5222 5222 5222 5222 5222 5222 5222 5222 5222 5222 5221 5220 5219 5218 5217 5216 5216 5216 5216 5215 5215 5215 5215 5215 5215 5214 5213 5212 5211 5210 5209 5210 5210 5211 5212 5212 5212 5212 5212 5212 5214 5215 5217 5219 5221 5223 5226 5229 5231 5233 5234 5237 5239 5240 5243 5245 5249 5252 5257 5261 5265 5270 5274 5278 5282 5286 5289 5293 5297 5302 5306 5309 5313 5317
5229 5229 5228 5227 5226 5226 5225 5225 5225 5225 5225 5225 5225 5225 5225 5225 5224 5224 5224 5223 5222 5221 5220 5219 5218 5216 5216 5215 5214 5214 5214 5214 5214 5214 5214 5213 5212 5211 5210 5208 5207 5206 5205 5206 5207 5208 5209 5210 5210 5210 5211 5212 5213 5215 5216 5218 5220 5222 5224 5225 5226 5228 5231 5232 5233 5235 5238 5241 5244 5248 5252 5256 5260 5264 5268 5272 5276 5280 5285 5290 5294 5299 5303 5307 5310
5232 5232 5231 5230 5229 5229 5228 5228 5228 5228 5228 5228 5227 5227 5227 5227 5226 5225 5225 5224 5223 5222 5221 5219 5217 5216 5215 5214 5213 5213 5213 5213 5213 5213 5212 5212 5211 5209 5208 5207 5206 5204 5204 5204 5205 5205 5206 5207 5208 5209 5209 5210 5211 5212 5214 5215 5216 5218 5219 5220 5221 5223 5225 5225 5227 5229 5231 5233 5236 5240 5244 5247 5250 5253 5257 5262 5267 5272 5277 5282 5287 5292 5296 5301 5304
5235 5234 5233 5233 5232 5232 5231 5231 5231 5231 5230 5230 5229 5229 5228 5228 5227 5226 5225 5225 5224 5223 5221 5219 5217 5215 5214 5213 5213 5213 5212 5212 5212 5212 5211 5211 5210 5209 5208 5207 5206 5205 5204 5203 5204 5204 5205 5206 5206 5207 5208 5208 5209 5210 5211 5212 5214 5214 5215 5216 5217 5218 5218 5219 5220 5222 5224 5227 5230 5233 5235 5238 5241 5244 5249 5254 5260 5265 5270 5276 5281 5286 5291 5295 5298
5238 5237 5236 5236 5235 5235 5234 5234 5234 5233 5233 5232 5231 5231 5230 5229 5228 5227 5227 5226 5225 5223 5221 5220 5218 5216 5215 5214 5213 5213 5213 5212 5212 5212 5211 5210 5209 5208 5208 5207 5206 5205 5204 5204 5204 5204 5204 5205 5205 5206 5207 5207 5208 5209 5210 5211 5211 5212 5213 5213 5214 5214 5214 5214 5216 5218 5220 5223 5225 5227 5229 5232 5235 5239 5243 5248 5254 5259 5266 5271 5277 5282 5286 5290 5293
5241 5240 5239 5238 5238 5237 5237 5236 5236 5235 5235 5234 5233 5232 5231 5230 5230 5229 5228 5227 5226 5224 5222 5221 5219 5218 5217 5215 5214 5214 5213 5213 5212 5212 5211 5210 5209 5208 5207 5207 5206 5205 5204 5204 5204 5204 5204 5204 5205 5205 5206 5206 5207 5207 5208 5208 5209 5209 5210 5210 5211 5211 5211 5212 5214 5215 5217 5219 5221 5223 5226 5229 5232 5236 5241 5246 5252 5257 5263 5268 5273 5278 5282 5285 5288
5244 5243 5242 5241 5241 5240 5240 5239 5238 5238 5237 5236 5235 5234 5233 5232 5231 5230 5229 5228 5227 5225 5223 5222 5221 5220 5218 5217 5216 5215 5214 5213 5213 5212 5212 5211 5210 5209 5208 5207 5206 5205 5205 5204 5204 5204 5204 5204 5204 5204 5205 5205 5206 5206 5207 5207 5207 5207 5208 5208 5209 5209 5210 5210 5212 5213 5215 5217 5220 5222 5225 5228 5232 5237 5241 5246 5251 5256 5261 5266 5271 5275 5278 5282 5285
5247 5246 5245 5244 5244 5243 5242 5241 5240 5240 5239 5238 5237 5236 5235 5234 5233 5232 5231 5229 5227 5226 5225 5223 5222 5221 5220 5219 5218 5217 5216 5215 5214 5214 5213 5212 5211 5210 5209 5208 5207 5206 5205 5205 5204 5204 5204 5204 5204 5204 5204 5205 5206 5206 5206 5207 5207 5207 5207 5208 5208 5209 5209 5210 5212 5214 5216 5218 5221 5224 5228 5231 5235 5239 5243 5247 5251 5256 5261 5265 5269 5272 5276 5279 5282
5250 5249 5248 5247 5246 5245 5244 5244 5243 5242 5241 5240 5239 5238 5237 5236 5235 5233 5232 5231 5229 5228 5226 5225 5224 5223 5222 5221 5220 5219 5218 5217 5216 5215 5214 5213 5212 5211 5210 5209 5208 5207 5206 5206 5205 5205 5204 5204 5204 5204 5205 5206 5206 5206 5207 5207 5208 5208 5208 5209 5209 5210 5211 5212 5214 5216 5219 5221 5224 5227 5231 5234 5237 5241 5244 5248 5252 5256 5260 5264 5267 5271 5274 5277 5280
5254 5253 5252 5250 5249 5248 5247 5246 5245 5244 5243 5242 5241 5239 5238 5237 5236 5235 5234 5232 5231 5230 5228 5227 5226 5225 5224 5223 5222 5221 5220 5219 5218 5217 5216 5215 5214 5213 5212 5211 5210 5209 5208 5208 5207 5206 5205 5205 5204 5204 5205 5206 5207 5207 5208 5208 5209 5210 5210 5211 5212 5212 5213 5215 5217 5220 5222 5225 5227 5230 5233 5236 5239 5242 5245 5249 5252 5256 5259 5263 5266 5269 5272 5275 5278
5257 5255 5254 5253 5252 5250 5249 5248 5247 5246 5245 5244 5242 5241 5240 5238 5237 5236 5235 5233 5232 5231 5230 5228 5227 5227 5225 5224 5223 5222 5221 5220 5219 5218 5217 5216 5216 5215 5214 5213 5212 5211 5210 5210 5209 5208 5207 5207 5206 5206 5206 5206 5207 5208 5209 5210 5210 5211 5212 5213 5214 5215 5217 5218 5220 5222 5225 5227 5229 5232 5235 5237 5240 5243 5246 5249 5252 5256 5259 5262 5265 5268 5271 5273 5275
5259 5258 5257 5255 5254 5253 5251 5250 5249 5248 5247 5245 5244 5243 5241 5240 5238 5237 5236 5235 5233 5232 5231 5230 5229 5228 5226 5225 5224 5223 5222 5221 5220 5219 5219 5218 5217 5217 5216 5215 5214 5214 5213 5212 5211 5211 5210 5209 5209 5208 5208 5208 5209 5209 5210 5211 5212 5213 5214 5216 5217 5218 5219 5221 5223 5224 5226 5229 5231 5233 5236 5238 5241 5244 5247 5250 5252 5255 5258 5261 5264 5266 5269 5271 5272
5260 5259 5258 5257 5256 5255 5253 5252 5251 5249 5248 5247 5246 5244 5243 5242 5240 5239 5238 5236 5235 5234 5232 5231 5230 5228 5227 5226 5225 5224 5223 5222 5222 5221 5220 5219 5219 5218 5217 5217 5216 5216 5215 5214 5213 5213 5213 5212 5212 5211 5211 5211 5211 5212 5213 5213 5214 5216 5217 5218 5219 5220 5221 5223 5224 5226 5228 5230 5232 5234 5237 5239 5242 5244 5247 5249 5252 5255 5257 5259 5262 5264 5266 5267 5269
5262 5261 5259 5258 5257 5256 5255 5253 5252 5251 5250 5248 5247 5246 5244 5243 5242 5240 5239 5237 5236 5234 5233 5231 5230 5228 5227 5226 5225 5225 5224 5223 5223 5222 5221 5220 5220 5219 5219 5218 5218 5218 5217 5216 5216 5215 5215 5215 5214 5214 5214 5214 5214 5215 5215 5216 5217 5218 5219 5220 5221 5222 5224 5225 5226 5227 5229 5231 5233 5235 5237 5240 5242 5244 5246 5249 5251 5253 5255 5257 5259 5261 5263 5264 5265
5262 5261 5260 5259 5258 5257 5256 5254 5253 5252 5251 5249 5248 5246 5245 5244 5242 5241 5239 5238 5236 5234 5232 5231 5229 5228 5227 5226 5225 5225 5224 5224 5224 5223 5223 5222 5222 5221 5221 5220 5220 5219 5219 5219 5218 5218 5217 5217 5217 5217 5217 5217 5217 5217 5218 5218 5219 5220 5221 5222 5223 5224 5225 5227 5228 5229 5231 5232 5234 5236 5238 5240 5242 5244 5246 5248 5250 5252 5254 5255 5256 5258 5259 5260 5261
5263 5262 5261 5260 5259 5257 5256 5255 5254 5252 5251 5250 5248 5247 5245 5244 5242 5241 5239 5237 5235 5233 5232 5230 5228 5227 5226 5225 5225 5225 5224 5224 5224 5224 5224 5224 5223 5223 5222 5222 5221 5221 5221 5220 5220 5220 5219 5219 5219 5219 5219 5219 5219 5220 5220 5221 5221 5222 5223 5223 5224 5225 5227 5228 5229 5230 5232 5233 5235 5237 5238 5240 5241 5243 5245 5246 5248 5249 5250 5252 5253 5254 5254 5255 5255
5263 5262 5261 5260 5259 5258 5256 5255 5254 5253 5251 5250 5248 5247 5245 5244 5242 5240 5238 5237 5235 5233 5231 5229 5227 5226 5225 5224 5224 5224 5224 5224 5225 5225 5225 5225 5224 5224 5224 5223 5223 5223 5222 5222 5221 5221 5221 5220 5220 5220 5220 5220 5221 5221 5222 5222 5223 5223 5224 5225 5225 5226 5227 5228 5229 5231 5232 5233 5235 5236 5237 5239 5240 5241 5242 5244 5245 5246 5247 5248 5249 5249 5250 5250 5251
5263 5261 5260 5259 5258 5257 5256 5255 5254 5252 5251 5250 5248 5247 5245 5243 5242 5240 5238 5236 5234 5232 5230 5228 5226 5225 5224 5223 5223 5223 5224 5224 5225 5225 5226 5226 5225 5225 5225 5224 5224 5224 5223 5223 5223 5222 5222 5222 5222 5221 5221 5221 5222 5222 5222 5223 5223 5224 5224 5225 5225 5226 5227 5228 5229 5230 5231 5233 5234 5235 5236 5237 5238 5240 5241 5242 5243 5244 5245 5245 5246 5246 5246 5246 5246
5263 5261 5260 5259 5258 5257 5256 5254 5253 5252 5250 5249 5248 5246 5245 5243 5241 5240 5238 5236 5234 5232 5230 5227 5226 5224 5223 5222 5223 5223 5223 5224 5225 5225 5226 5226 5225 5225 5225 5225 5225 5225 5224 5224 5224 5223 5223 5223 5223 5222 5222 5222 5222 5222 5223 5223 5223 5224 5224 5225 5226 5226 5227 5228 5229 5230 5231 5232 5233 5234 5235 5236 5237 5238 5239 5240 5241 5241 5242 5242 5242 5242 5242 5242 5241
5263 5261 5260 5258 5257 5256 5255 5253 5252 5251 5250 5249 5247 5246 5245 5243 5241 5240 5238 5236 5234 5232 5230 5227 5225 5224 5223 5222 5222 5222 5223 5223 5224 5224 5225 5225 5225 5225 5225 5225 5225 5225 5225 5224 5224 5224 5223 5223 5223 5223 5223 5223 5223 5223 5223 5224 5224 5224 5225 5226 5226 5227 5228 5229 5229 5230 5231 5232 5233 5234 5235 5236 5236 5237 5238 5238 5238 5238 5238 5238 5238 5238 5237 5236 5235
5263 5261 5260 5258 5257 5255 5254 5252 5251 5250 5249 5248 5247 5245 5244 5243 5241 5240 5238 5236 5235 5232 5230 5228 5226 5225 5224 5223 5223 5223 5222 5223 5223 5223 5224 5225 5225 5225 5225 5225 5225 5225 5225 5224 5224 5224 5224 5223 5223 5223 5223 5223 5223 5223 5224 5224 5225 5225 5226 5226 5227 5227 5228 5229 5229 5230 5231 5232 5232 5233 5234 5234 5234 5235 5235 5235 5235 5234 5234 5234 5233 5232 5231 5230 5229
5262 5261 5259 5258 5256 5255 5253 5252 5250 5249 5248 5247 5246 5245 5243 5242 5241 5240 5238 5237 5235 5233 5232 5230 5228 5226 5225 5224 5224 5223 5223 5223 5223 5223 5224 5224 5224 5224 5224 5225 5225 5225 5224 5224 5224 5224 5224 5224 5224 5224 5223 5224 5224 5224 5224 5225 5225 5226 5226 5226 5227 5227 5228 5228 5229 5230 5230 5231 5231 5231 5231 5231 5231 5231 5231 5231 5230 5230 5230 5229 5228 5227 5226 5224 5223
5262 5261 5259 5258 5256 5254 5253 5251 5250 5249 5248 5246 5245 5244 5243 5242 5241 5240 5239 5237 5236 5235 5233 5232 5230 5228 5227 5226 5225 5225 5224 5224 5223 5223 5224 5224 5224 5224 5224 5224 5224 5224 5224 5224 5224 5224 5224 5224 5224 5224 5224 5224 5224 5225 5225 5225 5225 5225 5226 5226 5226 5227 5227 5228 5228 5228 5228 5228 5228 5228 5228 5228 5228 5228 5228 5227 5226 5226 5225 5224 5223 5222 5221 5219 5217
5262 5260 5259 5257 5255 5254 5253 5251 5250 5248 5247 5246 5245 5244 5243 5242 5241 5240 5239 5238 5237 5236 5234 5233 5232 5230 5229 5228 5227 5226 5226 5225 5225 5225 5225 5225 5225 5225 5225 5225 5225 5225 5225 5224 5224 5224 5224 5224 5224 5224 5224 5224 5225 5225 5225 5225 5225 5225 5225 5226 5226 5226 5226 5226 5226 5226 5226 5226 5226 5226 5225 5225 5225 5224 5224 5224 5223 5222 5221 5220 5219 5217 5215 5213 5211
5262 5260 5258 5256 5255 5253 5252 5250 5249 5248 5247 5246 5244 5243 5243 5242 5241 5240 5239 5238 5237 5236 5235 5234 5233 5232 5231 5230 5229 5228 5228 5227 5227 5227 5226 5226 5226 5226 5226 5226 5225 5225 5225 5225 5225 5225 5224 5224 5224 5224 5224 5224 5224 5224 5224 5224 5224 5224 5225 5225 5225 5225 5225 5225 5225 5224 5224 5224 5224 5223 5223 5223 5222 5221 5221 5220 5219 5219 5217 5216 5214 5212 5210 5208 5206
5261 5259 5257 5256 5254 5252 5251 5250 5248 5247 5246 5245 5244 5244 5243 5243 5242 5241 5239 5239 5238 5236 5236 5235 5234 5233 5233 5232 5231 5230 5230 5229 5228 5228 5227 5227 5227 5226 5226 5226 5225 5225 5225 5225 5225 5225 5224 5224 5224 5224 5224 5224 5224 5224 5224 5224 5224 5224 5224 5224 5224 5224 5223 5223 5223 5223 5222 5222 5222 5221 5220 5220 5219 5218 5218 5217 5216 5215 5213 5211 5209 5207 5205 5202 5200
5261 5259 5257 5255 5253 5252 5250 5249 5248 5247 5246 5245 5244 5244 5244 5243 5242 5241 5240 5239 5238 5237 5236 5235 5235 5234 5233 5233 5232 5232 5231 5230 5230 5229 5228 5228 5228 5227 5227 5226 5226 5225 5225 5225 5225 5225 5224 5224 5224 5224 5223 5223 5223 5223 5223 5223 5223 5223 5223 5223 5222 5222 5222 5221 5221 5221 5220 5220 5219 5219 5218 5217 5216 5215 5214 5213 5212 5210 5208 5206 5204 5202 5200 5197 5194
5261 5259 5256 5254 5253 5251 5250 5249 5248 5246 5246 5245 5245 5245 5244 5243 5242 5241 5240 5239 5238 5237 5237 5236 5235 5234 5234 5233 5232 5232 5231 5231 5231 5230 5229 5229 5228 5228 5227 5227 5226 5226 5226 5225 5225 5225 5224 5224 5224 5223 5223 5223 5223 5223 5222 5222 5222 5222 5222 5221 5221 5221 5220 5220 5219 5219 5218 5217 5217 5216 5215 5214 5213 5212 5211 5209 5208 5206 5204 5202 5200 5197 5194 5192 5189